Miscellaneous Local Product
Issued by NWS Hastings, NE

Home | Current Version | Previous Version | Text Only | Print | Product List | Glossary Off
Versions: 1 2 3 4 5 6 7 8 9 10 11 12 13 14 15 16 17 18 19 20 21 22 23 24 25 26 27 28 29 30 31 32 33 34 35 36 37 38 39 40 41 42 43 44 45 46 47 48 49 50

000
AXUS43 KGID 020802
MISGRI

GID CWA HOURLY WEATHER ROUNDUP
NATIONAL WEATHER SERVICE HASTINGS NE
300 AM CDT WED SEP 02 2015

NOTE: "FAIR" INDICATES FEW OR NO CLOUDS BELOW 12,000 FEET WITH NO
SIGNIFICANT WEATHER AND/OR OBSTRUCTIONS TO VISIBILITY.

...SOUTH CENTRAL NEBRASKA...

CITY           SKY/WX    TMP DP  RH WIND       PRES   REMARKS
GRAND ISLAND   CLEAR     76  63  64 S13       29.89S
HASTINGS       CLEAR     73  64  73 S6        29.89F
KEARNEY        CLEAR     72  59  64 S7        29.89F
ORD            CLEAR     63  61  93 CALM      29.86S
YORK           CLEAR     72  66  83 S8        29.89F
AURORA         CLEAR     73  67  82 S8        29.89S
LEXINGTON      CLEAR     65  62  89 E3        29.90S
HOLDREGE       CLEAR     69  60  72 S5        29.90S
HEBRON         CLEAR     74  65  73 S10       29.90S

...NEBRASKA PANHANDLE...

CITY           SKY/WX    TMP DP  RH WIND       PRES   REMARKS
CHADRON        CLEAR     55  44  66 W3        29.87F
ALLIANCE       CLEAR     60  49  66 S9        29.93S
SCOTTSBLUFF    PTCLDY    58  52  80 MISG      29.97R
SIDNEY         CLEAR     64  43  46 SW10      30.00S

...WESTERN AND NORTH CENTRAL NEBRASKA...

CITY           SKY/WX    TMP DP  RH WIND       PRES   REMARKS
VALENTINE      CLEAR     66  60  81 W6        29.85S
ONEILL         CLEAR     69  66  90 S7        29.86F
BROKEN BOW     CLEAR     64  61  90 CALM      29.89F
IMPERIAL       CLEAR     65  56  72 SW7       29.94S
NORTH PLATTE   CLEAR     64  59  83 CALM      29.91S
MCCOOK         CLEAR     67  57  70 CALM      29.90F

...EASTERN NEBRASKA...

CITY           SKY/WX    TMP DP  RH WIND       PRES   REMARKS
NORFOLK        CLEAR     68  64  87 E5        29.86F
SO SIOUX CITY  CLEAR     71  65  81 SE8       29.85F
TEKAMAH        CLEAR     73  68  84 S8        29.87F
COLUMBUS       CLEAR     72  63  73 S7        29.87F
ALBION         CLEAR     71  64  77 CALM      29.87F
OMAHA EPPLEY   PTCLDY    76  68  76 S16       29.89F
OFFUTT AFB     PTCLDY    74  68  83 SE12      29.89F
MILLARD        CLEAR     74  68  80 SE6       29.89F
LINCOLN        CLEAR     75  68  78 S10       29.89F
NEBRASKA CITY  PTCLDY    74  65  73 S14       29.92F
BEATRICE       CLEAR     75  68  77 S12       29.90F
FALLS CITY     CLOUDY    74  69  85 S15       29.93F

...NORTHERN KANSAS...

CITY           SKY/WX    TMP DP  RH WIND       PRES   REMARKS
GOODLAND       CLEAR     70  58  65 SW8       29.97F
HILL CITY      PTCLDY    79  57  46 SW14G22   29.91F
NORTON         SUNNY     73  52  46 S12       29.90F
PHILLIPSBURG   CLEAR     81  57  44 CALM      29.90F
SMITH CENTER   CLEAR     70  61  73 SE5       29.91F
HAYS           CLEAR     77  55  47 S12       29.94S
RUSSELL        CLEAR     78  61  55 S15       29.92S
CONCORDIA      CLEAR     76  66  71 S17G25    29.90F
SALINA         PTCLDY    79  65  62 S16G25    29.93S
TOPEKA         CLEAR     76  67  73 S5        29.96F



USA.gov is the U.S. government's official web portal to all federal, state and local government web resources and services.